Weather reports worldwide

Advertisment
Newton Rigg, United Kingdom (99152): temperature & dewpoint: 21.05.2018 09:00:00 - 27.05.2018 09:00:00 (BST)Newton Rigg, United Kingdom (99152): temperature -20cm & temperature -100cm: 21.05.2018 09:00:00 - 27.05.2018 09:00:00 (BST)Newton Rigg, United Kingdom (99152): precipitation: 21.05.2018 09:00:00 - 27.05.2018 09:00:00 (BST)
Date & Time tt [°C] td [°C] tt -20cm [°C] tt -100cm [°C] rr [mm]
27.05.2018 09:00:00 - - - - -
27.05.2018 08:00:00 13,5 11,6 - - 0,0
27.05.2018 07:00:00 10,3 10,3 - - 0,0
27.05.2018 06:00:00 6,3 6,2 - - 0,0
27.05.2018 05:00:00 6,0 5,8 - - 0,0
27.05.2018 04:00:00 6,0 5,4 - - 0,0
27.05.2018 03:00:00 7,4 7,0 - - 0,0
27.05.2018 02:00:00 7,2 6,7 - - 0,0
27.05.2018 01:00:00 8,4 7,4 - - 0,0
27.05.2018 00:00:00 9,9 7,8 - - 0,0
26.05.2018 23:00:00 11,1 8,0 - - 0,0
26.05.2018 22:00:00 12,9 8,5 - - 0,0
26.05.2018 21:00:00 15,5 8,5 - - 0,0
26.05.2018 20:00:00 19,0 7,8 - - 0,0
26.05.2018 19:00:00 20,7 7,0 - - 0,0
26.05.2018 18:00:00 22,0 7,7 - - 0,0
26.05.2018 17:00:00 22,4 9,2 - - 0,0
26.05.2018 16:00:00 21,2 8,4 - - 0,0
26.05.2018 15:00:00 21,2 8,8 - - 0,0
26.05.2018 14:00:00 19,6 6,8 - - 0,0
26.05.2018 13:00:00 20,1 8,5 - - 0,0
26.05.2018 12:00:00 19,9 10,4 - - 0,0
26.05.2018 11:00:00 18,1 10,2 - - 0,0
26.05.2018 10:00:00 16,8 10,6 13,4 11,7 0,0
26.05.2018 09:00:00 15,8 9,6 - - 0,0
26.05.2018 08:00:00 14,5 9,1 - - 0,0
26.05.2018 07:00:00 14,6 8,7 - - 0,0
26.05.2018 06:00:00 13,4 10,8 - - 0,0
26.05.2018 05:00:00 11,9 10,4 - - 0,0
26.05.2018 04:00:00 11,3 10,1 - - 0,0
26.05.2018 03:00:00 11,8 10,6 - - 0,0
26.05.2018 02:00:00 11,1 9,8 - - 0,0
26.05.2018 01:00:00 11,6 10,1 - - 0,0
26.05.2018 00:00:00 12,1 10,1 - - 0,0
25.05.2018 23:00:00 13,2 10,3 - - 0,0
25.05.2018 22:00:00 13,4 10,9 - - 0,0
25.05.2018 21:00:00 12,9 11,6 - - 0,0
25.05.2018 20:00:00 13,3 12,1 - - 1,0
25.05.2018 19:00:00 12,9 11,8 - - 1,0
25.05.2018 18:00:00 12,8 11,3 - - 2,2
25.05.2018 17:00:00 13,8 11,9 - - 1,8
25.05.2018 16:00:00 14,8 10,2 - - 0,8
25.05.2018 15:00:00 18,2 8,6 - - 0,0
25.05.2018 14:00:00 16,3 10,2 - - 0,2
25.05.2018 13:00:00 16,8 9,4 - - 0,0
25.05.2018 12:00:00 18,0 9,4 - - 0,0
25.05.2018 11:00:00 17,4 8,7 - - 0,0
25.05.2018 10:00:00 15,7 9,5 13,7 11,5 0,0
25.05.2018 09:00:00 12,8 9,1 - - 0,0
25.05.2018 08:00:00 11,0 8,8 - - 0,0
25.05.2018 07:00:00 8,8 8,2 - - 0,0
25.05.2018 06:00:00 6,5 6,1 - - 0,0
25.05.2018 05:00:00 6,8 6,7 - - 0,0
25.05.2018 04:00:00 6,1 6,1 - - 0,0
25.05.2018 03:00:00 5,5 5,0 - - 0,0
25.05.2018 02:00:00 7,0 6,2 - - 0,0
25.05.2018 01:00:00 8,6 6,8 - - 0,0
25.05.2018 00:00:00 9,6 8,0 - - 0,0
24.05.2018 23:00:00 11,3 8,7 - - 0,0
24.05.2018 22:00:00 12,9 8,9 - - 0,0
24.05.2018 21:00:00 16,9 7,7 - - 0,0
24.05.2018 20:00:00 18,7 8,2 - - 0,0
24.05.2018 19:00:00 20,0 9,4 - - 0,0
24.05.2018 18:00:00 21,0 8,9 - - 0,0
24.05.2018 17:00:00 21,1 7,9 - - 0,0
24.05.2018 16:00:00 21,6 10,3 - - 0,0
24.05.2018 15:00:00 21,4 9,7 - - 0,0
24.05.2018 14:00:00 20,4 9,7 - - 0,0
24.05.2018 13:00:00 20,1 9,3 - - 0,0
24.05.2018 12:00:00 18,5 8,5 - - 0,0
24.05.2018 11:00:00 16,6 8,0 - - 0,0
24.05.2018 10:00:00 14,8 8,5 13,5 11,4 0,0
24.05.2018 09:00:00 12,6 7,8 - - 0,0
24.05.2018 08:00:00 10,5 7,9 - - 0,0
24.05.2018 07:00:00 7,3 6,2 - - 0,0
24.05.2018 06:00:00 5,6 5,1 - - 0,0
24.05.2018 05:00:00 5,5 4,7 - - 0,0
24.05.2018 04:00:00 5,3 4,4 - - 0,0
24.05.2018 03:00:00 5,9 5,1 - - 0,0
24.05.2018 02:00:00 6,9 5,9 - - 0,0
24.05.2018 01:00:00 7,1 6,0 - - 0,0
24.05.2018 00:00:00 7,8 6,5 - - 0,0
23.05.2018 23:00:00 8,4 7,0 - - 0,0
23.05.2018 22:00:00 9,3 7,4 - - 0,0
23.05.2018 21:00:00 11,6 8,0 - - 0,0
23.05.2018 20:00:00 14,1 8,2 - - 0,0
23.05.2018 19:00:00 16,3 8,7 - - 0,0
23.05.2018 18:00:00 17,0 8,2 - - 0,0
23.05.2018 17:00:00 17,2 7,6 - - 0,0
23.05.2018 16:00:00 17,3 7,8 - - 0,0
23.05.2018 15:00:00 16,6 8,4 - - 0,0
23.05.2018 14:00:00 16,9 9,3 - - 0,0
23.05.2018 13:00:00 16,4 9,1 - - 0,0
23.05.2018 12:00:00 15,0 8,3 - - 0,0
23.05.2018 11:00:00 13,4 7,6 - - 0,0
23.05.2018 10:00:00 12,4 7,6 13,2 11,2 0,0
23.05.2018 09:00:00 10,7 7,3 - - 0,0
23.05.2018 08:00:00 8,9 7,7 - - 0,0
23.05.2018 07:00:00 5,2 5,1 - - 0,0
23.05.2018 06:00:00 0,9 0,7 - - 0,0
23.05.2018 05:00:00 1,4 1,3 - - 0,0
23.05.2018 04:00:00 1,6 1,3 - - 0,0
23.05.2018 03:00:00 3,1 2,9 - - 0,0
23.05.2018 02:00:00 3,2 2,8 - - 0,0
23.05.2018 01:00:00 4,2 3,9 - - 0,0
23.05.2018 00:00:00 4,5 3,5 - - 0,0
22.05.2018 23:00:00 6,4 5,0 - - 0,0
22.05.2018 22:00:00 8,5 5,9 - - 0,0
22.05.2018 21:00:00 10,2 6,5 - - 0,0
22.05.2018 20:00:00 12,4 7,3 - - 0,0
22.05.2018 19:00:00 14,2 7,9 - - 0,0
22.05.2018 18:00:00 15,9 8,8 - - 0,0
22.05.2018 17:00:00 16,2 8,2 - - 0,0
22.05.2018 16:00:00 16,3 8,3 - - 0,0
22.05.2018 15:00:00 16,2 9,4 - - 0,0
22.05.2018 14:00:00 14,5 8,0 - - 0,0
22.05.2018 13:00:00 13,5 8,8 - - 0,0
22.05.2018 12:00:00 13,9 8,5 - - 0,0
22.05.2018 11:00:00 13,3 8,2 - - 0,0
22.05.2018 10:00:00 12,9 8,0 13,4 11,0 0,0
22.05.2018 09:00:00 11,4 7,3 - - 0,0
22.05.2018 08:00:00 10,3 7,0 - - 0,0
22.05.2018 07:00:00 9,2 7,1 - - 0,0
22.05.2018 06:00:00 8,4 7,0 - - 0,0
22.05.2018 05:00:00 8,6 6,7 - - 0,0
22.05.2018 04:00:00 10,3 7,6 - - 0,0
22.05.2018 03:00:00 11,0 7,8 - - 0,0
22.05.2018 02:00:00 11,6 9,5 - - 0,0
22.05.2018 01:00:00 12,0 9,5 - - 0,0
22.05.2018 00:00:00 12,4 9,9 - - 0,0
21.05.2018 23:00:00 11,2 8,5 - - 0,0
21.05.2018 22:00:00 12,8 8,0 - - 0,0
21.05.2018 21:00:00 14,2 8,2 - - 0,0
21.05.2018 20:00:00 16,6 7,8 - - 0,0
21.05.2018 19:00:00 17,8 7,3 - - 0,0
21.05.2018 18:00:00 18,1 8,6 - - 0,0
21.05.2018 17:00:00 19,1 10,1 - - 0,0
21.05.2018 16:00:00 19,7 10,3 - - 0,0
21.05.2018 15:00:00 20,4 10,4 - - 0,0
21.05.2018 14:00:00 20,3 10,5 - - 0,0
21.05.2018 13:00:00 20,1 11,3 - - 0,0
21.05.2018 12:00:00 19,8 10,2 - - 0,0
21.05.2018 11:00:00 19,3 10,7 - - 0,0
21.05.2018 10:00:00 17,8 10,5 12,7 11,0 0,0
21.05.2018 09:00:00 15,5 10,3 - - 0,0

tt = temperature
td = dewpoint
tt -20cm = temperature -20cm
tt -100cm = temperature -100cm
rr = precipitation

Next stations